AAL1931 KBNA-KMIA

Flight info

Callsign AAL1931
Flight time 1h 44m
Altitude 35000
Route TIPPN4 DENST HONID FROGZ5
Aircraft A21N/M-SDE2E3FGHIRWXY/LB1

Departure

Time 2026-05-04 03:57
Airport Nashville International Airport (KBNA)

Arrival

Time 2026-05-04 05:41
Airport Miami International Airport (KMIA)
Time Latitude Longitude Altitude Speed Heading
2026-05-04 03:34 36.12817 -86.67041 574 ft 0 kts 40°
2026-05-04 03:48 36.12815 -86.67044 577 ft 2 kts 40°
2026-05-04 03:48 36.12800 -86.67059 575 ft 3 kts 33°
2026-05-04 03:48 36.12782 -86.67071 578 ft 3 kts 21°
2026-05-04 03:48 36.12764 -86.67077 574 ft 3 kts 359°
2026-05-04 03:49 36.12747 -86.67072 579 ft 2 kts 319°
2026-05-04 03:49 36.12743 -86.67068 578 ft 2 kts 310°
2026-05-04 03:53 36.12751 -86.67079 574 ft 3 kts 310°
2026-05-04 03:53 36.12771 -86.67108 577 ft 6 kts 310°
2026-05-04 03:53 36.12805 -86.67158 578 ft 9 kts 311°
2026-05-04 03:53 36.12853 -86.67224 574 ft 11 kts 304°
2026-05-04 03:54 36.12819 -86.67311 577 ft 14 kts 221°
2026-05-04 03:54 36.12743 -86.67401 580 ft 16 kts 224°
2026-05-04 03:54 36.12640 -86.67483 581 ft 19 kts 208°
2026-05-04 03:54 36.12550 -86.67565 583 ft 15 kts 225°
2026-05-04 03:55 36.12468 -86.67659 585 ft 17 kts 210°
2026-05-04 03:55 36.12421 -86.67686 585 ft 7 kts 202°
2026-05-04 03:55 36.12370 -86.67713 584 ft 9 kts 216°
2026-05-04 03:55 36.12366 -86.67793 583 ft 11 kts 288°
2026-05-04 03:56 36.12393 -86.67891 582 ft 13 kts 289°
2026-05-04 03:56 36.12371 -86.67982 582 ft 15 kts 197°
2026-05-04 03:56 36.12170 -86.68054 579 ft 62 kts 195°
2026-05-04 03:56 36.11547 -86.68307 584 ft 123 kts 197°
2026-05-04 03:57 36.10936 -86.68547 628 ft 147 kts 197°
2026-05-04 03:57 36.09951 -86.68896 1114 ft 149 kts 194°
2026-05-04 03:57 36.08602 -86.69372 1903 ft 158 kts 201°
2026-05-04 03:57 36.07494 -86.69805 2419 ft 176 kts 200°
2026-05-04 03:58 36.05388 -86.70616 3447 ft 204 kts 201°
2026-05-04 03:58 36.03962 -86.71165 4019 ft 226 kts 201°
2026-05-04 03:58 36.02375 -86.71778 4566 ft 251 kts 201°
2026-05-04 03:59 36.00661 -86.72439 5261 ft 263 kts 201°
2026-05-04 03:59 35.98892 -86.73116 6135 ft 268 kts 201°
2026-05-04 03:59 35.97088 -86.73805 7011 ft 274 kts 201°
2026-05-04 03:59 35.95218 -86.74267 7820 ft 285 kts 184°
2026-05-04 04:00 35.93249 -86.73781 8659 ft 297 kts 157°
2026-05-04 04:00 35.91459 -86.72450 9537 ft 304 kts 147°
2026-05-04 04:00 35.89705 -86.70932 10302 ft 315 kts 146°
2026-05-04 04:00 35.87849 -86.69329 10725 ft 336 kts 146°
2026-05-04 04:01 35.85858 -86.67648 11172 ft 355 kts 147°
2026-05-04 04:01 35.83785 -86.65925 11914 ft 362 kts 147°
2026-05-04 04:01 35.81676 -86.64183 12769 ft 367 kts 147°
2026-05-04 04:01 35.79539 -86.62421 13606 ft 372 kts 147°
2026-05-04 04:02 35.77371 -86.60637 14371 ft 377 kts 147°
2026-05-04 04:02 35.75176 -86.58835 15134 ft 380 kts 148°
2026-05-04 04:02 35.72990 -86.57043 15893 ft 384 kts 148°
2026-05-04 04:02 35.70754 -86.55211 16663 ft 388 kts 148°
2026-05-04 04:03 35.68495 -86.53365 17413 ft 391 kts 148°
2026-05-04 04:03 35.66219 -86.51502 18167 ft 395 kts 148°
2026-05-04 04:03 35.63922 -86.49624 18825 ft 398 kts 148°
2026-05-04 04:03 35.61595 -86.47728 19435 ft 403 kts 149°
2026-05-04 04:04 35.59172 -86.45970 20021 ft 404 kts 159°
2026-05-04 04:04 35.56510 -86.44875 20596 ft 405 kts 169°
2026-05-04 04:04 35.53771 -86.44017 21183 ft 408 kts 170°
2026-05-04 04:04 35.51002 -86.43172 21763 ft 413 kts 170°
2026-05-04 04:05 35.48206 -86.42302 22347 ft 417 kts 170°
2026-05-04 04:05 35.45381 -86.41414 22923 ft 421 kts 170°
2026-05-04 04:05 35.42526 -86.40512 23479 ft 425 kts 169°
2026-05-04 04:05 35.39677 -86.39449 23986 ft 433 kts 161°
2026-05-04 04:06 35.37057 -86.37663 24440 ft 442 kts 146°
2026-05-04 04:06 35.34689 -86.35220 24909 ft 447 kts 140°
2026-05-04 04:06 35.32375 -86.32648 25363 ft 451 kts 140°
2026-05-04 04:06 35.30030 -86.30049 25819 ft 455 kts 140°
2026-05-04 04:07 35.27654 -86.27447 26256 ft 459 kts 140°
2026-05-04 04:07 35.25257 -86.24850 26691 ft 462 kts 141°
2026-05-04 04:07 35.22832 -86.22236 27113 ft 466 kts 141°
2026-05-04 04:07 35.20387 -86.19601 27512 ft 469 kts 141°
2026-05-04 04:08 35.17930 -86.16950 27876 ft 472 kts 140°
2026-05-04 04:08 35.15491 -86.14324 28239 ft 475 kts 140°
2026-05-04 04:08 35.13005 -86.11646 28592 ft 478 kts 140°
2026-05-04 04:08 35.10504 -86.08951 28945 ft 481 kts 140°
2026-05-04 04:09 35.07980 -86.06238 29282 ft 484 kts 140°
2026-05-04 04:09 35.05447 -86.03517 29639 ft 487 kts 140°
2026-05-04 04:09 35.02894 -86.00778 29992 ft 490 kts 140°
2026-05-04 04:09 35.00326 -85.98029 30309 ft 493 kts 141°
2026-05-04 04:10 34.97738 -85.95258 30594 ft 496 kts 140°
2026-05-04 04:10 34.95138 -85.92477 30876 ft 499 kts 140°
2026-05-04 04:10 34.92523 -85.89680 31182 ft 501 kts 140°
2026-05-04 04:10 34.89887 -85.86866 31477 ft 503 kts 140°
2026-05-04 04:11 34.87250 -85.84051 31783 ft 505 kts 140°
2026-05-04 04:11 34.84597 -85.81224 32112 ft 506 kts 140°
2026-05-04 04:11 34.81978 -85.78436 32480 ft 506 kts 140°
2026-05-04 04:11 34.79323 -85.75629 32854 ft 505 kts 142°
2026-05-04 04:12 34.76456 -85.73191 33175 ft 501 kts 154°
2026-05-04 04:12 34.73285 -85.71482 33511 ft 497 kts 163°
2026-05-04 04:12 34.70031 -85.70049 33842 ft 496 kts 164°
2026-05-04 04:12 34.66776 -85.68649 34161 ft 496 kts 164°
2026-05-04 04:13 34.63527 -85.67238 34474 ft 494 kts 164°
2026-05-04 04:13 34.60306 -85.65821 34802 ft 492 kts 164°
2026-05-04 04:13 34.57092 -85.64397 35092 ft 491 kts 164°
2026-05-04 04:13 34.53885 -85.62981 35162 ft 491 kts 164°
2026-05-04 04:14 34.47465 -85.60144 35143 ft 490 kts 164°
2026-05-04 04:14 34.41097 -85.57334 35135 ft 490 kts 164°
2026-05-04 04:15 34.34685 -85.54506 35121 ft 490 kts 163°
2026-05-04 04:15 34.28273 -85.51687 35135 ft 490 kts 163°
2026-05-04 04:16 34.21868 -85.48887 35137 ft 490 kts 164°
2026-05-04 04:16 34.15460 -85.46084 35138 ft 490 kts 163°
2026-05-04 04:17 34.09049 -85.43268 35137 ft 490 kts 163°
2026-05-04 04:17 34.02632 -85.40465 35143 ft 489 kts 163°
2026-05-04 04:18 33.96269 -85.37693 35150 ft 489 kts 163°
2026-05-04 04:18 33.89867 -85.34904 35156 ft 489 kts 163°
2026-05-04 04:19 33.83457 -85.32118 35150 ft 490 kts 163°
2026-05-04 04:19 33.77038 -85.29331 35161 ft 490 kts 163°
2026-05-04 04:20 33.70615 -85.26537 35208 ft 490 kts 163°
2026-05-04 04:20 33.64232 -85.23770 35216 ft 490 kts 163°
2026-05-04 04:21 33.57810 -85.20997 35218 ft 489 kts 163°
2026-05-04 04:21 33.51398 -85.18230 35215 ft 489 kts 163°
2026-05-04 04:22 33.45001 -85.15474 35203 ft 489 kts 163°
2026-05-04 04:22 33.38598 -85.12723 35190 ft 489 kts 163°
2026-05-04 04:23 33.32194 -85.09969 35169 ft 489 kts 163°
2026-05-04 04:23 33.25824 -85.07241 35170 ft 489 kts 163°
2026-05-04 04:24 33.19424 -85.04501 35178 ft 488 kts 163°
2026-05-04 04:24 33.13042 -85.01776 35170 ft 485 kts 163°
2026-05-04 04:25 33.06685 -84.99075 35169 ft 485 kts 163°
2026-05-04 04:25 33.00326 -84.96371 35181 ft 485 kts 163°
2026-05-04 04:26 32.94012 -84.93683 35175 ft 485 kts 163°
2026-05-04 04:26 32.87618 -84.90961 35178 ft 484 kts 163°
2026-05-04 04:27 32.81309 -84.88289 35179 ft 485 kts 163°
2026-05-04 04:27 32.74950 -84.85596 35171 ft 484 kts 163°
2026-05-04 04:28 32.68593 -84.82909 35170 ft 484 kts 163°
2026-05-04 04:28 32.62246 -84.80229 35162 ft 484 kts 163°
2026-05-04 04:29 32.55898 -84.77552 35162 ft 484 kts 163°
2026-05-04 04:29 32.49573 -84.74893 35160 ft 484 kts 163°
2026-05-04 04:30 32.43210 -84.72222 35161 ft 485 kts 163°
2026-05-04 04:30 32.36840 -84.69548 35162 ft 485 kts 163°
2026-05-04 04:31 32.30479 -84.66879 35150 ft 485 kts 163°
2026-05-04 04:31 32.24143 -84.64213 35163 ft 483 kts 163°
2026-05-04 04:32 32.17795 -84.61574 35156 ft 483 kts 164°
2026-05-04 04:32 32.11488 -84.58954 35154 ft 483 kts 164°
2026-05-04 04:33 32.05150 -84.56299 35161 ft 482 kts 163°
2026-05-04 04:33 31.98912 -84.53694 35146 ft 473 kts 164°
2026-05-04 04:34 31.92703 -84.51114 35144 ft 471 kts 165°
2026-05-04 04:34 31.86525 -84.48555 35153 ft 470 kts 165°
2026-05-04 04:35 31.80357 -84.46000 35163 ft 470 kts 165°
2026-05-04 04:35 31.74227 -84.43469 35166 ft 470 kts 165°
2026-05-04 04:36 31.68050 -84.40914 35172 ft 470 kts 165°
2026-05-04 04:36 31.61814 -84.38776 35167 ft 464 kts 173°
2026-05-04 04:37 31.49182 -84.35603 35177 ft 464 kts 173°
2026-05-04 04:38 31.42863 -84.34006 35176 ft 464 kts 173°
2026-05-04 04:38 31.36554 -84.32409 35154 ft 462 kts 174°
2026-05-04 04:39 31.30286 -84.30829 35172 ft 460 kts 174°
2026-05-04 04:39 31.24018 -84.29252 35169 ft 461 kts 174°
2026-05-04 04:40 31.17791 -84.27684 35169 ft 455 kts 174°
2026-05-04 04:40 31.11642 -84.26140 35156 ft 455 kts 174°
2026-05-04 04:41 31.05461 -84.24591 35162 ft 454 kts 175°
2026-05-04 04:41 30.99285 -84.23048 35164 ft 454 kts 175°
2026-05-04 04:42 30.93108 -84.21507 35166 ft 454 kts 175°
2026-05-04 04:42 30.86924 -84.19962 35165 ft 454 kts 175°
2026-05-04 04:43 30.80758 -84.18424 35135 ft 459 kts 175°
2026-05-04 04:43 30.74478 -84.16856 35164 ft 461 kts 175°
2026-05-04 04:44 30.69258 -84.15557 35163 ft 462 kts 175°
2026-05-04 04:44 30.62974 -84.13993 35159 ft 462 kts 175°
2026-05-04 04:45 30.56684 -84.12433 35153 ft 462 kts 175°
2026-05-04 04:47 30.34827 -84.06052 35160 ft 477 kts 158°
2026-05-04 04:47 30.29065 -84.02198 35160 ft 479 kts 155°
2026-05-04 04:48 30.23350 -83.98351 35132 ft 478 kts 156°
2026-05-04 04:49 30.08937 -83.88808 35160 ft 473 kts 157°
2026-05-04 04:49 30.03227 -83.85043 35163 ft 473 kts 158°
2026-05-04 04:50 29.97508 -83.81274 35163 ft 473 kts 157°
2026-05-04 04:50 29.91827 -83.77529 35147 ft 473 kts 158°
2026-05-04 04:51 29.86104 -83.73765 35157 ft 474 kts 158°
2026-05-04 04:51 29.80367 -83.69997 35157 ft 474 kts 158°
2026-05-04 04:52 29.74637 -83.66235 35153 ft 474 kts 158°
2026-05-04 04:52 29.68902 -83.62480 35151 ft 474 kts 158°
2026-05-04 04:53 29.63170 -83.58731 35136 ft 474 kts 159°
2026-05-04 04:53 29.57456 -83.54997 35152 ft 475 kts 159°
2026-05-04 04:54 29.51725 -83.51254 35146 ft 470 kts 159°
2026-05-04 04:54 29.46029 -83.47546 35150 ft 470 kts 159°
2026-05-04 04:55 29.40333 -83.43851 35146 ft 470 kts 159°
2026-05-04 04:55 29.34630 -83.40152 35116 ft 471 kts 160°
2026-05-04 04:56 29.28921 -83.36454 35133 ft 471 kts 160°
2026-05-04 04:56 29.23141 -83.33012 35137 ft 464 kts 165°
2026-05-04 04:57 29.17240 -83.30031 35143 ft 463 kts 166°
2026-05-04 04:57 29.11335 -83.27046 35137 ft 464 kts 166°
2026-05-04 04:58 29.05472 -83.24075 35089 ft 463 kts 166°
2026-05-04 04:58 28.99568 -83.21084 35125 ft 463 kts 166°
2026-05-04 04:59 28.93664 -83.18107 35126 ft 463 kts 166°
2026-05-04 04:59 28.87768 -83.15128 35122 ft 462 kts 166°
2026-05-04 05:00 28.81954 -83.12178 35126 ft 459 kts 166°
2026-05-04 05:01 28.73176 -83.07760 35107 ft 460 kts 167°
2026-05-04 05:01 28.67312 -83.04813 35115 ft 461 kts 167°
2026-05-04 05:02 28.61442 -83.01863 35118 ft 461 kts 167°
2026-05-04 05:02 28.55567 -82.98920 35118 ft 461 kts 167°
2026-05-04 05:03 28.49731 -82.95999 35118 ft 461 kts 167°
2026-05-04 05:04 28.37953 -82.90116 35111 ft 463 kts 167°
2026-05-04 05:04 28.32049 -82.87167 35110 ft 463 kts 167°
2026-05-04 05:06 28.08487 -82.75441 35104 ft 458 kts 168°
2026-05-04 05:07 28.02640 -82.72565 35110 ft 455 kts 170°
2026-05-04 05:07 27.99676 -82.71481 35108 ft 441 kts 179°
2026-05-04 05:07 27.96692 -82.70817 35111 ft 435 kts 182°
2026-05-04 05:09 27.69892 -82.65612 35099 ft 435 kts 182°
2026-05-04 05:10 27.63931 -82.64441 35099 ft 435 kts 182°
2026-05-04 05:10 27.57965 -82.63268 35099 ft 435 kts 182°
2026-05-04 05:11 27.51993 -82.61991 35100 ft 442 kts 178°
2026-05-04 05:11 27.46023 -82.60248 35099 ft 444 kts 178°
2026-05-04 05:12 27.40058 -82.58478 35112 ft 443 kts 178°
2026-05-04 05:12 27.34130 -82.56739 35111 ft 442 kts 178°
2026-05-04 05:13 27.28166 -82.54990 35111 ft 443 kts 178°
2026-05-04 05:13 27.22214 -82.53253 35077 ft 441 kts 178°
2026-05-04 05:14 27.16265 -82.51516 35097 ft 441 kts 178°
2026-05-04 05:14 27.10313 -82.49776 35080 ft 442 kts 178°
2026-05-04 05:15 27.04369 -82.48035 35081 ft 442 kts 178°
2026-05-04 05:15 26.98421 -82.46299 35081 ft 442 kts 178°
2026-05-04 05:16 26.92538 -82.44321 35058 ft 455 kts 168°
2026-05-04 05:16 26.89709 -82.42586 35069 ft 474 kts 156°
2026-05-04 05:16 26.87096 -82.40249 35080 ft 484 kts 150°
2026-05-04 05:17 26.82080 -82.35277 34601 ft 477 kts 150°
2026-05-04 05:17 26.79554 -82.32820 33595 ft 484 kts 149°
2026-05-04 05:17 26.77001 -82.30364 32941 ft 482 kts 149°
2026-05-04 05:18 26.74472 -82.27940 32458 ft 476 kts 149°
2026-05-04 05:18 26.71972 -82.25549 31967 ft 470 kts 149°
2026-05-04 05:18 26.69492 -82.23182 31450 ft 466 kts 149°
2026-05-04 05:18 26.67028 -82.20842 30945 ft 462 kts 149°
2026-05-04 05:19 26.64582 -82.18519 30398 ft 460 kts 149°
2026-05-04 05:19 26.62146 -82.16202 29885 ft 459 kts 148°
2026-05-04 05:19 26.59749 -82.13919 29327 ft 458 kts 148°
2026-05-04 05:19 26.57332 -82.11613 28783 ft 456 kts 148°
2026-05-04 05:20 26.54916 -82.09307 28258 ft 454 kts 148°
2026-05-04 05:20 26.52523 -82.06995 27756 ft 453 kts 147°
2026-05-04 05:20 26.50183 -82.04651 27250 ft 451 kts 146°
2026-05-04 05:20 26.47853 -82.02300 26726 ft 450 kts 146°
2026-05-04 05:21 26.45535 -81.99962 26207 ft 448 kts 146°
2026-05-04 05:21 26.43235 -81.97643 25712 ft 443 kts 146°
2026-05-04 05:21 26.40976 -81.95371 25235 ft 438 kts 146°
2026-05-04 05:21 26.38724 -81.93104 24740 ft 434 kts 145°
2026-05-04 05:22 26.36488 -81.90855 24263 ft 431 kts 145°
2026-05-04 05:22 26.34271 -81.88626 23768 ft 427 kts 145°
2026-05-04 05:22 26.32068 -81.86409 23183 ft 423 kts 144°
2026-05-04 05:22 26.29898 -81.84224 22661 ft 418 kts 145°
2026-05-04 05:23 26.27747 -81.82063 22182 ft 413 kts 145°
2026-05-04 05:23 26.25623 -81.79934 21684 ft 409 kts 145°
2026-05-04 05:23 26.23620 -81.77683 21192 ft 412 kts 134°
2026-05-04 05:23 26.22171 -81.74911 20723 ft 417 kts 120°
2026-05-04 05:24 26.20973 -81.71986 20269 ft 413 kts 119°
2026-05-04 05:24 26.19790 -81.69092 19827 ft 408 kts 120°
2026-05-04 05:24 26.18593 -81.66251 19397 ft 403 kts 121°
2026-05-04 05:24 26.17389 -81.63450 18987 ft 398 kts 121°
2026-05-04 05:25 26.16188 -81.60693 18591 ft 394 kts 121°
2026-05-04 05:25 26.15000 -81.57965 18180 ft 389 kts 121°
2026-05-04 05:25 26.13827 -81.55273 17741 ft 385 kts 121°
2026-05-04 05:25 26.12665 -81.52609 17324 ft 380 kts 121°
2026-05-04 05:26 26.11521 -81.49985 16937 ft 375 kts 121°
2026-05-04 05:26 26.10389 -81.47399 16576 ft 369 kts 121°
2026-05-04 05:26 26.09289 -81.44882 16231 ft 364 kts 121°
2026-05-04 05:26 26.08180 -81.42348 15887 ft 364 kts 121°
2026-05-04 05:27 26.07072 -81.39818 15543 ft 363 kts 121°
2026-05-04 05:28 25.99365 -81.22134 13053 ft 362 kts 120°
2026-05-04 05:29 25.98263 -81.19628 12686 ft 360 kts 120°
2026-05-04 05:29 25.97158 -81.17131 12374 ft 359 kts 120°
2026-05-04 05:29 25.96077 -81.14677 12034 ft 358 kts 120°
2026-05-04 05:29 25.94987 -81.12199 11668 ft 354 kts 119°
2026-05-04 05:31 25.88499 -80.96454 9565 ft 320 kts 115°
2026-05-04 05:31 25.87347 -80.93448 9064 ft 317 kts 115°
2026-05-04 05:32 25.86483 -80.91212 8726 ft 313 kts 115°
2026-05-04 05:32 25.85907 -80.89720 8527 ft 310 kts 115°
2026-05-04 05:32 25.85074 -80.87555 8242 ft 306 kts 115°
2026-05-04 05:33 25.83407 -80.83233 7624 ft 305 kts 115°
2026-05-04 05:33 25.82575 -80.81067 7237 ft 304 kts 115°
2026-05-04 05:33 25.81748 -80.78927 6966 ft 299 kts 115°
2026-05-04 05:33 25.80943 -80.76842 6809 ft 289 kts 115°
2026-05-04 05:34 25.80168 -80.74828 6678 ft 279 kts 115°
2026-05-04 05:34 25.79427 -80.72887 6559 ft 268 kts 115°
2026-05-04 05:34 25.78721 -80.71015 6415 ft 258 kts 113°
2026-05-04 05:34 25.78334 -80.69085 6116 ft 257 kts 92°
2026-05-04 05:35 25.78382 -80.67114 5808 ft 255 kts 87°
2026-05-04 05:35 25.78478 -80.65161 5501 ft 253 kts 87°
2026-05-04 05:35 25.78579 -80.63221 5199 ft 251 kts 86°
2026-05-04 05:35 25.78678 -80.61290 4917 ft 250 kts 86°
2026-05-04 05:36 25.78788 -80.59376 4675 ft 244 kts 86°
2026-05-04 05:36 25.78888 -80.57532 4507 ft 234 kts 86°
2026-05-04 05:36 25.78975 -80.55795 4323 ft 224 kts 86°
2026-05-04 05:36 25.79060 -80.54061 4014 ft 221 kts 86°
2026-05-04 05:37 25.79137 -80.52387 3694 ft 219 kts 88°
2026-05-04 05:37 25.79206 -80.50705 3391 ft 218 kts 87°
2026-05-04 05:37 25.79276 -80.49033 3096 ft 215 kts 87°
2026-05-04 05:38 25.79423 -80.45713 2847 ft 215 kts 86°
2026-05-04 05:38 25.79503 -80.44060 2544 ft 214 kts 88°
2026-05-04 05:38 25.79570 -80.42411 2238 ft 211 kts 88°
2026-05-04 05:38 25.79635 -80.40857 1996 ft 194 kts 87°
2026-05-04 05:39 25.79695 -80.39403 1713 ft 184 kts 87°
2026-05-04 05:39 25.79808 -80.36697 1174 ft 166 kts 87°
2026-05-04 05:39 25.79859 -80.35468 991 ft 149 kts 86°
2026-05-04 05:40 25.79948 -80.33323 621 ft 137 kts 86°
2026-05-04 05:40 25.79991 -80.32270 423 ft 136 kts 87°
2026-05-04 05:40 25.80034 -80.31219 246 ft 136 kts 87°
2026-05-04 05:41 25.80076 -80.30174 66 ft 136 kts 87°
2026-05-04 05:41 25.80124 -80.29173 23 ft 118 kts 90°
2026-05-04 05:41 25.80144 -80.28455 21 ft 68 kts 89°
2026-05-04 05:41 25.80156 -80.28110 19 ft 26 kts 89°
2026-05-04 05:42 25.80164 -80.27903 19 ft 28 kts 88°
2026-05-04 05:42 25.80165 -80.27683 20 ft 29 kts 81°
2026-05-04 05:42 25.80125 -80.27545 21 ft 18 kts 144°
2026-05-04 05:42 25.80010 -80.27481 22 ft 20 kts 204°
2026-05-04 05:43 25.79982 -80.27605 20 ft 18 kts 264°
2026-05-04 05:43 25.79979 -80.27651 20 ft 0 kts 268°
2026-05-04 05:45 25.79957 -80.28077 20 ft 18 kts 265°
2026-05-04 05:45 25.79954 -80.28227 20 ft 20 kts 270°
2026-05-04 05:47 25.79889 -80.28199 22 ft 1 kts 87°
2026-05-04 05:47 25.79890 -80.28188 23 ft 5 kts 83°
2026-05-04 05:47 25.79894 -80.28133 20 ft 12 kts 88°
2026-05-04 05:48 25.79896 -80.28034 20 ft 14 kts 91°
2026-05-04 05:48 25.79895 -80.28013 20 ft 0 kts 91°
2026-05-04 05:48 25.79890 -80.27992 22 ft 4 kts 112°
2026-05-04 05:49 25.79863 -80.27987 20 ft 6 kts 214°
2026-05-04 05:49 25.79833 -80.28009 20 ft 0 kts 213°
2026-05-04 05:51 25.79850 -80.28066 20 ft 0 kts 228°
2026-05-04 05:52 25.79847 -80.28070 20 ft 2 kts 226°
2026-05-04 05:52 25.79830 -80.28087 20 ft 3 kts 223°
2026-05-04 05:54 25.79833 -80.28085 20 ft 0 kts 221°